STARLINK-11537, 62911

Orbit data source: Space-Track

STARLINK-11537, 62911 is a payload satellite owned by SpaceX/Seattle (US) in LEO that was launched on Sat, 08 Feb 2025 UTC via an FALCON 9 launch vehicle from the Air Force Eastern Test Range (AFETR). Payload-class satellites include a variety of spacecraft equipped with specific instruments for various scientific and technological missions. These include communications satellites like Starlink; space stations such as the ISS; scientific satellites like the Hubble; Earth observation satellites from companies like Planet Labs, Umbra, and HawkEye 360; GPS; miniature CubeSats for education and research; and military/defense satellites.

Loading next visibility...
Identifier
62911, 2025-027E
Orbit
LEO
Country
Flag of USUS
Related business
Manufacturer
SpaceX/Seattle
Mission
Operational Commercial Communications
Bus & Motor
STARLINK V2MD, Unknown motor
Mass
960 kg wet, ~910 kg dry
Launch date (UTC)
2025-02-08 (1 year ago)
Launch vehicle
FALCON 9
Launch site
Air Force Eastern Test Range (AFETR)
Object type
Payload
Rocket body
Debris
Shape & HBR
Box + 2 Pan, 18.1 m
Radar Cross Section
36.964 m², Large (>1 m²)

Expand to show TLE details & history
Last TLE update: 20 hours ago

TLE from 20 hours ago
0 STARLINK-11537
1 62911U 25027E   26126.37190574  .00159285  00000-0  12211-2 0  9997
2 62911  42.9991   0.0088 0001297 238.2766 121.7976 15.70841747 72268
Epoch: 2026-05-06T08:55Z
TLE epoch observation values (Epoch: 2026-05-06T08:55:32.655Z)
Latitude
0.00001°
Longitude
1.8894°
Altitude
356.721 km
Speed
7.697 km/s
True Right ascension
00h 00m 02s
True Declination
0° 00' 00"
Sunlit
Object was in daylight at epoch
Visualization orbit readout
Latitude
Unknown
Longitude
Unknown
Altitude
Unknown
Speed
Unknown
Apparent Right ascension
Unknown
Apparent Declination
Unknown
Sunlit
N/A
Visualization observer readout
Local Sidereal Time
12:44:34
Azimuth
Unknown
Elevation
Unknown
Doppler factor
Unknown
Orbital elements
Apogee altitude
359.346 km
Perigee altitude
357.598 km
Semi-major axis
6,736.609 km
Eccentricity
0.00013
Inclination
42.9991°
RAAN
0.0088°
Arg. of periapsis
238.2766°
True anomaly
121.81023°
Mean anomaly
121.7976°
Eccentric anomaly
121.80392°
Mean motion
3.92538 °/min
Orbital period
91.71 mins
BSTAR
0.0012211
Loading maneuver chart data...
Computing Atmospheric mass density...
Loading historical data...
Loading historical data...
Loading historical data...
Loading historical data...
Loading historical data...
Loading historical data...
Loading historical data...

Documentation

Showing up to 5 results
|